{"data":{"norad_id":56695,"epoch":"2026-09-20T01:08:51.520128Z","epoch_age_seconds":153987,"freshness":"FRESH","line1":"1 56695U 23067H   26263.04781852  .00000635  00000+0  32599-4 0  9998","line2":"2 56695  43.0020 263.7106 0000938 278.2853  81.7892 15.27577476185305","mean_motion":15.27577476,"eccentricity":9.38e-5,"inclination_deg":43.002,"raan_deg":263.7106,"arg_perigee_deg":278.2853,"mean_anomaly_deg":81.7892,"bstar":3.2599e-5,"rev_number":18530,"period_min":94.266904469597,"perigee_km":482.41307384934,"apogee_km":483.70023377879,"semimajor_km":6861.1936538141,"source":"CELESTRAK","updated_at":"2026-09-21T09:00:33.482061Z"}}